Weather History for Alabaster, AL

Change the Weather History Date:

Thursday, August 1, 2013

  Actual Average Record
Temperature  
Mean Temperature 79 °F 81 °F  
Max Temperature 88 °F 91 °F 99 °F (1999)
Min Temperature 70 °F 71 °F 60 °F (1960)
Cooling Degree Days 14 16  
Month to date cooling degree days 14 16  
Year to date cooling degree days 1093 1146  
Since 1 June cooling degree days 841 877  
Growing Degree Days 28 (Base 50)    
Moisture  
Dew Point 71 °F    
Average Humidity 74    
Maximum Humidity 93    
Minimum Humidity 55    
Precipitation  
Precipitation 1.40 in 0.14 in 1.54 in (1959)
Month to date precipitation 1.40 0.14  
Year to date precipitation 41.98 33.46  
Sea Level Pressure  
Sea Level Pressure 29.99 in    
Wind  
Wind Speed 3 mph (NW)    
Max Wind Speed 13 mph    
Max Gust Speed 21 mph    
Visibility 8 miles    
Events Rain , Thunderstorm    
T = Trace of Precipitation, MM = Missing Value Source: NWS Daily Summary

Daily Weather History Graph

Daily Weather History Graph

Search for Another Location

Airport:

Trip Planner

Search our weather history database for the weather conditions in past years. The results will help you decide how hot, cold, wet, or windy it might be!

Date:

Astronomy

Aug. 01, 2013 Rise Set
Actual Time 6:00 AM CDT 7:46 PM CDT
Civil Twilight 5:33 AM CDT 8:13 PM CDT
Nautical Twilight 5:00 AM CDT 8:45 PM CDT
Astronomical Twilight 4:26 AM CDT 9:19 PM CDT
Moon 1:37 AM CDT (8/1) 3:52 PM CDT (8/1)
Length of Visible Light 14h 39m
Length of Day
13h 45m
Waning Crescent, 23% of the Moon is Illuminated
Aug 1
Waning Crescent
Aug 6
New
Aug 14
First Quarter
Aug 20
Full
Aug 28
Last Quarter

Hourly Weather History & Observations

Time (CDT) Temp. Heat Index Dew Point Humidity Pressure Visibility Wind Dir Wind Speed Gust Speed Precip Events Conditions
12:53 AM 73.9 °F - 72.0 °F 93% 29.98 in 9.0 mi South 6.9 mph - N/A   Overcast
1:03 AM 75.2 °F - 71.6 °F 89% 29.99 in 9.0 mi South 5.8 mph - N/A Thunderstorm Overcast
1:36 AM 73.4 °F - 71.6 °F 94% 30.02 in 5.0 mi NNW 11.5 mph 18.4 mph 0.02 in Rain , Thunderstorm Thunderstorms and Rain
1:46 AM 71.6 °F - 71.6 °F 100% 30.02 in 1.8 mi NNE 10.4 mph 19.6 mph 0.12 in Rain , Thunderstorm Heavy Thunderstorms and Rain
1:53 AM 72.0 °F - 70.0 °F 93% 29.99 in 1.0 mi East 11.5 mph 20.7 mph 0.25 in Rain , Thunderstorm Heavy Thunderstorms and Rain
2:15 AM 71.6 °F - 68.0 °F 88% 30.02 in 1.5 mi SW 4.6 mph - 0.33 in Rain , Thunderstorm Heavy Rain
2:29 AM 71.6 °F - 69.8 °F 94% 30.01 in 2.0 mi Calm Calm - 0.49 in Rain , Thunderstorm Thunderstorms and Rain
2:38 AM 71.6 °F - 69.8 °F 94% 30.01 in 3.0 mi Calm Calm - 0.53 in Rain , Thunderstorm Heavy Thunderstorms and Rain
2:47 AM 69.8 °F - 69.8 °F 100% 30.02 in 1.8 mi North 3.5 mph - 0.62 in Rain , Thunderstorm Heavy Rain
2:53 AM 70.0 °F - 70.0 °F 100% 30.01 in 0.8 mi Calm Calm - 0.75 in Rain , Thunderstorm Heavy Rain
3:03 AM 71.6 °F - 69.8 °F 94% 30.02 in 1.0 mi SW 5.8 mph - 0.12 in Rain , Thunderstorm Heavy Thunderstorms and Rain
3:28 AM 71.6 °F - 69.8 °F 94% 29.99 in 3.0 mi South 4.6 mph - 0.39 in Rain , Thunderstorm Thunderstorms and Rain
3:48 AM 71.6 °F - 69.8 °F 94% 29.99 in 10.0 mi South 5.8 mph - 0.39 in   Mostly Cloudy
3:53 AM 71.1 °F - 70.0 °F 96% 29.97 in 10.0 mi SSE 4.6 mph - 0.39 in   Mostly Cloudy
4:23 AM 71.6 °F - 69.8 °F 94% 29.98 in 10.0 mi Calm Calm - N/A   Partly Cloudy
4:53 AM 71.1 °F - 70.0 °F 96% 29.95 in 10.0 mi Calm Calm - 0.01 in   Clear
5:18 AM 71.6 °F - 69.8 °F 94% 29.98 in 9.0 mi WNW 3.5 mph - N/A   Scattered Clouds
5:28 AM 69.8 °F - 69.8 °F 100% 29.98 in 8.0 mi Calm Calm - N/A   Mostly Cloudy
5:43 AM 71.6 °F - 69.8 °F 94% 29.99 in 10.0 mi Calm Calm - N/A   Scattered Clouds
5:53 AM 71.1 °F - 70.0 °F 96% 29.97 in 10.0 mi Calm Calm - N/A   Partly Cloudy
6:53 AM 72.0 °F - 70.0 °F 93% 29.99 in 10.0 mi Calm Calm - N/A   Scattered Clouds
7:07 AM 71.6 °F - 69.8 °F 94% 30.01 in 10.0 mi Calm Calm - N/A   Mostly Cloudy
7:53 AM 73.0 °F - 71.1 °F 93% 30.00 in 10.0 mi Calm Calm - N/A   Mostly Cloudy
8:01 AM 73.4 °F - 71.6 °F 94% 30.02 in 10.0 mi Calm Calm - N/A   Scattered Clouds
8:37 AM 75.2 °F - 71.6 °F 89% 30.02 in 10.0 mi Variable 3.5 mph - N/A   Mostly Cloudy
8:53 AM 75.9 °F - 71.1 °F 85% 30.00 in 10.0 mi NNW 5.8 mph - N/A   Mostly Cloudy
9:00 AM 77.0 °F - 71.6 °F 83% 30.02 in 10.0 mi NNW 4.6 mph - N/A   Scattered Clouds
9:53 AM 80.1 °F 84.2 °F 73.0 °F 79% 29.99 in 10.0 mi NW 4.6 mph - N/A   Partly Cloudy
10:13 AM 78.8 °F - 73.4 °F 83% 30.01 in 10.0 mi NNW 3.5 mph - N/A   Mostly Cloudy
10:53 AM 81.0 °F 85.8 °F 73.0 °F 77% 29.99 in 10.0 mi NW 6.9 mph - N/A   Mostly Cloudy
11:39 AM 84.2 °F 90.9 °F 73.4 °F 70% 30.01 in 10.0 mi Variable 3.5 mph - N/A   Mostly Cloudy
11:53 AM 82.0 °F 87.4 °F 73.0 °F 74% 29.99 in 10.0 mi North 6.9 mph - N/A   Mostly Cloudy
12:53 PM 86.0 °F 93.0 °F 73.0 °F 65% 29.97 in 10.0 mi North 6.9 mph - N/A   Partly Cloudy
1:53 PM 84.9 °F 89.4 °F 70.0 °F 61% 29.97 in 10.0 mi NNW 4.6 mph - N/A   Mostly Cloudy
2:53 PM 87.1 °F 92.8 °F 71.1 °F 59% 29.96 in 10.0 mi Variable 3.5 mph - N/A   Mostly Cloudy
3:53 PM 84.9 °F 89.4 °F 70.0 °F 61% 29.94 in 10.0 mi Variable 5.8 mph - N/A   Scattered Clouds
4:53 PM 87.1 °F 91.3 °F 69.1 °F 55% 29.93 in 10.0 mi Variable 4.6 mph - N/A   Clear
5:53 PM 87.1 °F 91.3 °F 69.1 °F 55% 29.94 in 10.0 mi Variable 4.6 mph - N/A   Partly Cloudy
6:53 PM 84.9 °F 88.8 °F 69.1 °F 59% 29.94 in 10.0 mi Calm Calm - N/A   Partly Cloudy
7:53 PM 79.0 °F - 71.1 °F 77% 29.95 in 10.0 mi Calm Calm - N/A   Clear
8:53 PM 75.9 °F - 72.0 °F 87% 29.97 in 9.0 mi Calm Calm - N/A   Clear
9:53 PM 75.0 °F - 72.0 °F 90% 29.97 in 8.0 mi Calm Calm - N/A   Clear
10:53 PM 73.9 °F - 71.1 °F 91% 29.98 in 7.0 mi Calm Calm - N/A   Clear
11:53 PM 73.0 °F - 71.1 °F 93% 29.98 in 6.0 mi Calm Calm - N/A   Clear